• Em Portugal
  • Lista de países
  • Para 7 dias
  • Temperatura da água
  • Mapas de satélite
  • Mapa do tempo
  • Widgets de tempo
  • user-avatar
    Iniciar Sessão

    Previsão horária em Pechenki

    Hoje, 15 Novembro, Quinta-feira

    Tempo Temperatura Precipitação Vento Pressão Humidade
    00:00 -1°C° 0 mm 1 m/s 748 mmHg 94%
    01:00 -1°C° 0 mm 1 m/s 748 mmHg 94%
    02:00 -1°C° 0 mm 1 m/s 748 mmHg 95%
    03:00 -1°C° 0 mm 1 m/s 749 mmHg 95%
    04:00 -1°C° 0 mm 1 m/s 749 mmHg 95%
    05:00 -1°C° 0 mm 1 m/s 750 mmHg 95%
    06:00 -1°C° 0 mm 1 m/s 750 mmHg 95%
    07:00 -1°C° 0 mm 1 m/s 751 mmHg 95%
    08:00 -3°C° 0 mm 2 m/s 751 mmHg 95%
    09:00 -2°C° 0 mm 2 m/s 752 mmHg 94%
    10:00 -1°C° 0 mm 2 m/s 752 mmHg 94%
    11:00 -1°C° 0 mm 2 m/s 753 mmHg 93%
    12:00 -1°C° 0 mm 2 m/s 753 mmHg 94%
    13:00 +1°C° 0 mm 2 m/s 754 mmHg 94%
    14:00 +1°C° 0 mm 2 m/s 754 mmHg 94%
    15:00 -1°C° 0 mm 2 m/s 755 mmHg 94%
    16:00 -1°C° 0 mm 2 m/s 755 mmHg 94%
    17:00 -1°C° 0 mm 2 m/s 755 mmHg 94%
    18:00 -1°C° 0 mm 2 m/s 756 mmHg 93%
    19:00 -1°C° 0 mm 2 m/s 756 mmHg 93%
    20:00 -1°C° 0 mm 2 m/s 757 mmHg 93%
    21:00 -2°C° 0 mm 2 m/s 757 mmHg 92%
    22:00 0°C° 0 mm 1 m/s 757 mmHg 92%
    23:00 0°C° 0 mm 1 m/s 758 mmHg 92%

    Amanhã, 16 Novembro, Sexta-feira

    Tempo Temperatura Precipitação Vento Pressão Humidade
    00:00 0°C° 0 mm 1 m/s 758 mmHg 92%
    01:00 0°C° 0 mm 1 m/s 758 mmHg 92%
    02:00 -1°C° 0 mm 1 m/s 759 mmHg 91%
    03:00 -1°C° 0 mm 1 m/s 759 mmHg 91%
    04:00 -1°C° 0 mm 1 m/s 759 mmHg 91%
    05:00 -2°C° 0 mm 1 m/s 759 mmHg 90%
    06:00 -2°C° 0 mm 1 m/s 760 mmHg 89%
    07:00 -4°C° 0 mm 2 m/s 760 mmHg 89%
    08:00 -4°C° 0 mm 2 m/s 760 mmHg 88%
    09:00 -3°C° 0 mm 2 m/s 761 mmHg 85%
    10:00 -2°C° 0 mm 2 m/s 761 mmHg 81%
    11:00 -1°C° 0 mm 2 m/s 761 mmHg 78%
    12:00 +1°C° 0 mm 1 m/s 761 mmHg 78%
    13:00 +1°C° 0 mm 1 m/s 761 mmHg 79%
    14:00 +1°C° 0 mm 1 m/s 761 mmHg 79%
    15:00 0°C° 0 mm 1 m/s 761 mmHg 79%
    16:00 -1°C° 0 mm 1 m/s 761 mmHg 80%
    17:00 -4°C° 0 mm 2 m/s 761 mmHg 80%
    18:00 -4°C° 0 mm 2 m/s 761 mmHg 79%
    19:00 -2°C° 0 mm 1 m/s 761 mmHg 78%
    20:00 -2°C° 0 mm 1 m/s 762 mmHg 77%
    21:00 -2°C° 0 mm 1 m/s 762 mmHg 75%
    22:00 -2°C° 0 mm 1 m/s 762 mmHg 74%
    23:00 -3°C° 0 mm 1 m/s 762 mmHg 72%

    Depois de amanhã, 17 Novembro, Sábado

    Tempo Temperatura Precipitação Vento Pressão Humidade
    00:00 -3°C° 0 mm 1 m/s 762 mmHg 71%
    01:00 -3°C° 0 mm 1 m/s 762 mmHg 69%
    02:00 -4°C° 0 mm 0 m/s 762 mmHg 68%
    03:00 -4°C° 0 mm 0 m/s 761 mmHg 67%
    04:00 -4°C° 0 mm 0 m/s 761 mmHg 66%
    05:00 -4°C° 0 mm 0 m/s 761 mmHg 66%
    06:00 -4°C° 0 mm 0 m/s 761 mmHg 66%
    07:00 -3°C° 0 mm 1 m/s 761 mmHg 66%
    08:00 -3°C° 0 mm 1 m/s 761 mmHg 67%
    09:00 -2°C° 0 mm 1 m/s 760 mmHg 66%
    10:00 -1°C° 0 mm 1 m/s 760 mmHg 65%
    11:00 0°C° 0 mm 1 m/s 759 mmHg 64%
    12:00 0°C° 0 mm 1 m/s 759 mmHg 67%
    13:00 -2°C° 0 mm 2 m/s 758 mmHg 70%
    14:00 -1°C° 0 mm 2 m/s 758 mmHg 73%
    15:00 -2°C° 0 mm 2 m/s 757 mmHg 76%
    16:00 -2°C° 0 mm 2 m/s 757 mmHg 79%
    17:00 -4°C° 0 mm 3 m/s 756 mmHg 82%
    18:00 -4°C° 0 mm 3 m/s 756 mmHg 84%
    19:00 -2°C° 0 mm 3 m/s 755 mmHg 87%
    20:00 -2°C° 0 mm 3 m/s 754 mmHg 89%
    21:00 -2°C° 0 mm 3 m/s 754 mmHg 91%
    22:00 -2°C° 0 mm 4 m/s 753 mmHg 93%
    23:00 -2°C° 0 mm 4 m/s 753 mmHg 94%

    18 Novembro, Domingo

    Tempo Temperatura Precipitação Vento Pressão Humidade
    00:00 -2°C° 0 mm 4 m/s 752 mmHg 95%
    01:00 -2°C° 0 mm 4 m/s 751 mmHg 95%
    02:00 -2°C° 0 mm 4 m/s 751 mmHg 96%
    03:00 -2°C° 0.1 mm 4 m/s 750 mmHg 96%
    04:00 -1°C° 0.1 mm 4 m/s 749 mmHg 96%
    05:00 -1°C° 0.1 mm 4 m/s 748 mmHg 96%
    06:00 -1°C° 0.1 mm 4 m/s 748 mmHg 97%
    07:00 -1°C° 0.1 mm 4 m/s 747 mmHg 97%
    08:00 -1°C° 0.1 mm 4 m/s 746 mmHg 97%
    09:00 -1°C° 0.1 mm 4 m/s 746 mmHg 96%
    10:00 -1°C° 0.1 mm 5 m/s 746 mmHg 95%
    11:00 0°C° 0.1 mm 5 m/s 746 mmHg 94%
    12:00 0°C° 0.2 mm 5 m/s 745 mmHg 94%
    13:00 0°C° 0.2 mm 5 m/s 745 mmHg 93%
    14:00 0°C° 0.2 mm 5 m/s 745 mmHg 92%
    15:00 -1°C° 0.2 mm 5 m/s 745 mmHg 92%
    16:00 -1°C° 0.2 mm 5 m/s 744 mmHg 92%
    17:00 -1°C° 0.2 mm 5 m/s 744 mmHg 93%
    18:00 -1°C° 0.3 mm 5 m/s 744 mmHg 93%
    19:00 -1°C° 0.3 mm 4 m/s 744 mmHg 94%
    20:00 -1°C° 0.3 mm 4 m/s 743 mmHg 94%
    21:00 -1°C° 0.2 mm 4 m/s 743 mmHg 94%
    22:00 -1°C° 0.2 mm 4 m/s 743 mmHg 94%
    23:00 -1°C° 0.2 mm 4 m/s 743 mmHg 95%

    19 Novembro, Segunda-feira

    Tempo Temperatura Precipitação Vento Pressão Humidade
    00:00 -1°C° 0.2 mm 4 m/s 744 mmHg 94%
    01:00 -1°C° 0.2 mm 4 m/s 744 mmHg 94%
    02:00 -1°C° 0.2 mm 4 m/s 744 mmHg 94%
    03:00 -1°C° 0.2 mm 5 m/s 744 mmHg 93%
    04:00 -1°C° 0.2 mm 5 m/s 744 mmHg 92%
    05:00 -1°C° 0.2 mm 5 m/s 744 mmHg 91%
    06:00 -1°C° 0.1 mm 5 m/s 745 mmHg 91%
    07:00 -2°C° 0.1 mm 6 m/s 745 mmHg 90%
    08:00 -2°C° 0.1 mm 6 m/s 745 mmHg 90%
    09:00 -2°C° 0.1 mm 6 m/s 746 mmHg 89%
    10:00 -2°C° 0.1 mm 6 m/s 746 mmHg 89%
    11:00 -1°C° 0.1 mm 5 m/s 746 mmHg 88%
    12:00 -1°C° 0.1 mm 5 m/s 747 mmHg 88%
    13:00 -1°C° 0.1 mm 5 m/s 747 mmHg 87%
    14:00 -1°C° 0.1 mm 5 m/s 747 mmHg 87%
    15:00 -2°C° 0 mm 5 m/s 747 mmHg 86%
    16:00 -4°C° 0 mm 5 m/s 747 mmHg 85%
    17:00 -4°C° 0 mm 5 m/s 748 mmHg 84%
    18:00 -5°C° 0 mm 5 m/s 748 mmHg 85%
    19:00 -6°C° 0 mm 5 m/s 748 mmHg 85%
    20:00 -5°C° 0 mm 4 m/s 749 mmHg 86%
    21:00 -5°C° 0 mm 4 m/s 749 mmHg 86%
    22:00 -7°C° 0 mm 4 m/s 749 mmHg 87%
    23:00 -7°C° 0 mm 4 m/s 749 mmHg 87%

    20 Novembro, Terça-feira

    Tempo Temperatura Precipitação Vento Pressão Humidade
    00:00 -7°C° 0 mm 4 m/s 749 mmHg 88%
    01:00 -7°C° 0 mm 4 m/s 749 mmHg 89%
    02:00 -7°C° 0 mm 4 m/s 749 mmHg 90%
    03:00 -7°C° 0 mm 4 m/s 749 mmHg 90%
    04:00 -7°C° 0 mm 4 m/s 749 mmHg 90%
    05:00 -6°C° 0 mm 3 m/s 749 mmHg 90%
    06:00 -5°C° 0 mm 3 m/s 749 mmHg 90%
    07:00 -5°C° 0 mm 3 m/s 749 mmHg 90%
    08:00 -5°C° 0 mm 3 m/s 749 mmHg 89%
    09:00 -5°C° 0 mm 3 m/s 749 mmHg 88%
    10:00 -4°C° 0 mm 3 m/s 749 mmHg 86%
    11:00 -4°C° 0 mm 3 m/s 749 mmHg 84%
    12:00 -2°C° 0 mm 3 m/s 748 mmHg 84%
    13:00 -2°C° 0 mm 3 m/s 748 mmHg 84%
    14:00 -2°C° 0 mm 3 m/s 748 mmHg 84%
    15:00 -2°C° 0 mm 2 m/s 748 mmHg 86%
    16:00 -3°C° 0 mm 2 m/s 747 mmHg 87%
    17:00 -3°C° 0 mm 2 m/s 747 mmHg 89%
    18:00 -3°C° 0 mm 2 m/s 747 mmHg 89%
    19:00 -3°C° 0 mm 2 m/s 747 mmHg 90%
    20:00 -3°C° 0 mm 2 m/s 747 mmHg 90%
    21:00 -1°C° 0 mm 1 m/s 746 mmHg 89%
    22:00 -1°C° 0 mm 1 m/s 746 mmHg 88%
    23:00 -1°C° 0 mm 1 m/s 746 mmHg 88%
    Mostrar mais